Location: Kershaw
(34.5481°N, 80.5823°W)
Time: 22:31:05
(UTC+00:00)

Vanguard 2 Rocket - Pass Details

Date: 04 October 2022
Orbit: 555 x 3321 km, 32.9° (Epoch: 28 November)

Event Time Altitude Azimuth Distance (km) Brightness Sun altitude
Exits shadow 09:46:18 20° 204° (SSW) 1,610 7.9 -19.9°
Drops below altitude 10° 09:48:58 10° 166° (SSE) 2,007 8.7 -19.4°
Sets 09:51:25 0° 149° (SSE) 2,779 9.7 -18.9°
